CST,Max TemperatureF,Mean TemperatureF,Min TemperatureF,Max Dew PointF,MeanDew PointF,Min DewpointF,Max Humidity, Mean Humidity, Min Humidity, Max Sea Level PressureIn, Mean Sea Level PressureIn, Min Sea Level PressureIn, Max VisibilityMiles, Mean VisibilityMiles, Min VisibilityMiles, Max Wind SpeedMPH, Mean Wind SpeedMPH, Max Gust SpeedMPH,PrecipitationIn, CloudCover, Events, WindDirDegrees
2012-12-1,78,67,56,63,60,54,90,75,60,30.17,30.10,30.04,10,10,10,20,10,25,0.00,4,,174
2012-12-2,80,72,63,65,63,60,100,77,54,30.20,30.13,30.08,10,9,6,16,9,21,0.00,5,,184
2012-12-3,73,69,64,67,65,62,100,84,68,30.10,30.05,30.01,10,9,4,21,10,28,T,7,Rain,169
2012-12-4,73,68,62,67,64,58,100,88,76,30.18,30.10,30.06,10,9,5,20,7,24,T,7,Rain,181
2012-12-5,64,60,55,59,54,51,100,86,72,30.24,30.17,30.08,10,9,2,14,8,18,0.01,8,,38
2012-12-6,60,55,50,56,53,50,100,90,80,30.07,29.97,29.91,10,5,0,10,3,12,T,7,Fog,163
2012-12-7,72,64,55,61,58,55,100,84,68,29.94,29.88,29.82,10,6,0,16,6,21,0.00,7,Fog,171
2012-12-8,77,69,61,65,63,60,100,80,60,29.92,29.87,29.81,10,6,0,14,7,28,0.00,6,Fog,181
2012-12-9,76,65,54,66,63,50,100,82,64,29.89,29.83,29.77,10,8,4,18,8,26,0.13,7,Rain-Thunderstorm,199
2012-12-10,54,44,34,52,32,22,96,69,42,30.10,29.98,29.86,10,9,4,25,12,32,0.31,5,Rain-Thunderstorm,316
2012-12-11,50,40,29,26,23,19,78,54,29,30.26,30.18,30.10,10,10,9,12,5,20,0.00,2,,25
2012-12-12,54,41,27,29,23,16,85,54,22,30.38,30.30,30.26,10,10,10,8,2,13,0.00,0,,115
2012-12-13,61,44,26,31,27,24,92,59,25,30.37,30.31,30.25,10,10,10,13,2,17,0.00,0,,144
2012-12-14,59,45,31,54,38,27,92,65,37,30.26,30.13,29.96,10,10,7,18,6,22,0.01,6,Rain,138
2012-12-15,73,65,57,64,59,51,100,77,53,29.97,29.90,29.84,10,8,1,22,8,26,0.53,8,Rain,200
2012-12-16,67,62,56,64,60,55,100,95,90,29.85,29.78,29.71,10,6,0,17,5,23,0.21,7,Fog-Rain-Thunderstorm,218
2012-12-17,65,53,40,58,48,38,100,70,40,29.90,29.80,29.73,10,7,0,17,8,24,0.00,3,Fog,237
2012-12-18,75,56,37,52,42,36,100,64,27,29.90,29.86,29.81,10,10,9,16,7,21,0.00,0,,185
2012-12-19,77,65,52,66,60,51,100,82,64,29.88,29.76,29.64,10,10,9,22,11,29,0.00,7,,171
2012-12-20,73,55,36,64,29,11,80,50,20,30.38,30.09,29.72,10,9,1,40,18,51,0.19,3,Rain-Thunderstorm,296
2012-12-21,63,46,29,29,20,13,70,42,14,30.48,30.39,30.32,10,10,10,13,4,21,0.00,2,,279
2012-12-22,67,48,29,44,29,22,85,52,19,30.35,30.25,30.13,10,10,10,15,6,20,0.00,5,,187
2012-12-23,70,62,54,60,54,45,84,75,66,30.10,29.94,29.82,10,10,10,23,9,28,T,8,Rain,187
2012-12-24,64,53,41,49,39,32,80,63,46,29.98,29.89,29.83,10,10,9,10,4,18,0.00,5,,303
2012-12-25,54,45,35,52,45,32,100,93,86,29.96,29.68,29.52,10,6,1,28,15,32,2.49,8,Rain-Snow-Thunderstorm,29
2012-12-26,38,32,26,31,26,23,89,74,59,30.22,30.14,29.98,10,10,7,18,10,28,T,6,,307
2012-12-27,47,37,26,40,32,26,100,79,58,30.17,30.07,29.92,10,8,3,13,6,17,0.15,7,Rain,107
2012-12-28,44,41,37,43,39,30,100,90,79,30.14,29.92,29.82,10,7,2,20,11,28,0.27,8,Fog-Rain,358
2012-12-29,47,37,27,29,22,18,85,59,33,30.45,30.34,30.15,10,10,10,21,9,26,0.00,3,,314
2012-12-30,46,35,23,29,25,21,88,63,38,30.52,30.42,30.31,10,10,10,13,4,16,0.00,7,,137
2012-12-31,54,47,39,54,44,30,100,81,62,30.29,30.08,29.96,10,6,3,17,7,23,1.36,8,Rain,139